Weather History for Edinburg, TX

Change the Weather History Date:

Tuesday, October 2, 2012

  Actual Average (KMFE) Record (KMFE)
Temperature  
Mean Temperature 79 °F 80 °F  
Max Temperature 93 °F 90 °F 99 °F (2009)
Min Temperature 65 °F 70 °F 52 °F (1958)
Degree Days  
Heating Degree Days 0 0  
Month to date heating degree days 0  
Since 1 July heating degree days 0  
Cooling Degree Days 14 15  
Month to date cooling degree days 30  
Year to date cooling degree days 3829  
Growing Degree Days 29 (Base 50)    
Moisture  
Dew Point 53 °F    
Average Humidity 48    
Maximum Humidity 87    
Minimum Humidity 15    
Precipitation  
Precipitation 0.00 in 0.09 in 0.67 in (1945)
Month to date precipitation 0.19  
Year to date precipitation 18.23  
Sea Level Pressure  
Sea Level Pressure 29.94 in    
Wind  
Wind Speed 5 mph (NNW)    
Max Wind Speed 22 mph    
Max Gust Speed 30 mph    
Visibility 7 miles    
Events      
T = Trace of Precipitation, MM = Missing Value Source: NWS Daily Summary

Daily Weather History Graph

Daily Weather History Graph

Search for Another Location

Airport:

Trip Planner

Search our weather history database for the weather conditions in past years. The results will help you decide how hot, cold, wet, or windy it might be!

Date:

Astronomy

Oct. 02, 2012 Rise Set
Actual Time 7:25 AM CDT 7:17 PM CDT
Civil Twilight 7:02 AM CDT 7:40 PM CDT
Nautical Twilight 6:35 AM CDT 8:07 PM CDT
Astronomical Twilight 6:08 AM CDT 8:33 PM CDT
Moon 8:51 PM CDT (10/2) 9:35 AM CDT (10/2)
Length of Visible Light 12h 37m
Length of Day
11h 51m
Waning Gibbous, 94% of the Moon is Illuminated
Oct 2
Waning Gibbous
Oct 8
Last Quarter
Oct 15
New
Oct 21
First Quarter
Oct 29
Full

Hourly Weather History & Observations

Time (CDT) Temp. Heat Index Dew Point Humidity Pressure Visibility Wind Dir Wind Speed Gust Speed Precip Events Conditions
12:15 AM 73.6 °F - 63.3 °F 70% 29.91 in 7.0 mi Calm Calm - N/A   Clear
12:35 AM 73.6 °F - 63.0 °F 69% 29.91 in 7.0 mi Calm Calm - N/A   Clear
12:55 AM 71.6 °F - 62.6 °F 73% 29.91 in 10.0 mi Calm Calm - N/A   Clear
1:15 AM 71.1 °F - 63.0 °F 75% 29.91 in 10.0 mi Calm Calm - N/A   Clear
1:35 AM 71.2 °F - 63.1 °F 75% 29.92 in 7.0 mi NNE 3.5 mph - N/A   Clear
2:15 AM 71.1 °F - 62.8 °F 75% 29.93 in 7.0 mi Calm Calm - N/A   Clear
2:35 AM 70.9 °F - 62.8 °F 75% 29.93 in 7.0 mi Calm Calm - N/A   Clear
2:55 AM 69.1 °F - 62.2 °F 79% 29.92 in 7.0 mi Calm Calm - N/A   Clear
3:15 AM 68.9 °F - 62.8 °F 81% 29.93 in 10.0 mi Calm Calm - N/A   Clear
3:35 AM 69.4 °F - 62.6 °F 79% 29.92 in 7.0 mi Calm Calm - N/A   Clear
3:55 AM 68.7 °F - 62.6 °F 81% 29.91 in 7.0 mi Calm Calm - N/A   Clear
4:15 AM 68.0 °F - 62.2 °F 82% 29.91 in 7.0 mi Calm Calm - N/A   Clear
4:35 AM 67.1 °F - 61.7 °F 83% 29.91 in 7.0 mi Calm Calm - N/A   Clear
4:55 AM 66.7 °F - 61.7 °F 84% 29.92 in 7.0 mi Calm Calm - N/A   Clear
5:55 AM 67.3 °F - 63.0 °F 86% 29.93 in 7.0 mi Calm Calm - N/A   Clear
6:15 AM 67.1 °F - 62.8 °F 86% 29.94 in 7.0 mi West 3.5 mph - N/A   Clear
6:35 AM 66.6 °F - 62.6 °F 87% 29.94 in 7.0 mi Calm Calm - N/A   Clear
7:15 AM 65.5 °F - 61.0 °F 85% 29.95 in 7.0 mi NNW 3.5 mph - N/A   Clear
7:35 AM 65.3 °F - 60.4 °F 84% 29.95 in 5.0 mi Calm Calm - N/A   Clear
7:55 AM 65.7 °F - 60.8 °F 84% 29.95 in 5.0 mi Calm Calm - N/A   Haze
8:15 AM 66.7 °F - 61.5 °F 83% 29.95 in 5.0 mi NW 3.5 mph - N/A   Haze
8:35 AM 68.9 °F - 62.4 °F 80% 29.96 in 5.0 mi WNW 3.5 mph - N/A   Haze
8:55 AM 70.9 °F - 62.6 °F 75% 29.97 in 7.0 mi WNW 4.6 mph - N/A   Clear
9:15 AM 74.7 °F - 63.7 °F 69% 29.98 in 7.0 mi NW 4.6 mph - N/A   Clear
9:35 AM 77.9 °F - 63.3 °F 61% 29.98 in 7.0 mi NW 4.6 mph - N/A   Clear
9:55 AM 80.4 °F 81.7 °F 63.0 °F 55% 29.99 in 5.0 mi WNW 6.9 mph - N/A   Haze
10:15 AM 82.8 °F 83.1 °F 60.6 °F 47% 29.99 in 7.0 mi NW 6.9 mph - N/A   Clear
10:55 AM 85.1 °F 84.3 °F 57.6 °F 39% 29.99 in 10.0 mi NW 8.1 mph - N/A   Clear
11:15 AM 85.8 °F 84.5 °F 56.3 °F 36% 29.99 in 10.0 mi NW 9.2 mph - N/A   Clear
11:35 AM 86.7 °F 84.9 °F 54.3 °F 33% 29.98 in 7.0 mi NW 12.7 mph - N/A   Clear
11:55 AM 87.8 °F 85.9 °F 54.9 °F 32% 29.98 in 7.0 mi NW 8.1 mph - N/A   Clear
12:15 PM 88.7 °F 86.7 °F 54.1 °F 31% 29.97 in 7.0 mi NNW 10.4 mph - N/A   Clear
12:35 PM 87.8 °F 85.7 °F 53.8 °F 31% 29.97 in 7.0 mi WNW 11.5 mph 16.1 mph N/A   Scattered Clouds
12:55 PM 89.1 °F 86.9 °F 53.4 °F 30% 29.96 in 7.0 mi West 11.5 mph - N/A   Scattered Clouds
1:15 PM 91.8 °F - 51.4 °F 25% 29.94 in 7.0 mi NW 9.2 mph 19.6 mph N/A   Mostly Cloudy
1:35 PM 89.6 °F - 51.3 °F 27% 29.93 in 5.0 mi NNW 13.8 mph 20.7 mph N/A   Haze
1:55 PM 90.1 °F - 50.9 °F 26% 29.92 in 5.0 mi NNW 10.4 mph 17.3 mph N/A   Haze
2:15 PM 92.5 °F - 48.0 °F 22% 29.91 in 5.0 mi NW 11.5 mph 24.2 mph N/A   Haze
2:35 PM 92.7 °F - 46.4 °F 20% 29.90 in 5.0 mi NNW 15.0 mph 24.2 mph N/A   Haze
2:55 PM 93.2 °F - 46.6 °F 20% 29.89 in 5.0 mi NNW 21.9 mph 29.9 mph N/A   Haze
3:15 PM 92.7 °F - 44.4 °F 19% 29.89 in 7.0 mi NNW 20.7 mph 25.3 mph N/A   Clear
3:35 PM 92.5 °F - 42.8 °F 18% 29.88 in 5.0 mi NW 19.6 mph 27.6 mph N/A   Haze
3:55 PM 92.7 °F - 42.1 °F 17% 29.89 in 7.0 mi NNW 15.0 mph 23.0 mph N/A   Clear
4:15 PM 92.1 °F - 41.2 °F 17% 29.89 in 7.0 mi NW 19.6 mph 24.2 mph N/A   Clear
4:35 PM 92.1 °F - 43.7 °F 19% 29.89 in 7.0 mi North 12.7 mph 21.9 mph N/A   Scattered Clouds
4:55 PM 91.9 °F - 40.6 °F 17% 29.89 in 7.0 mi NNW 18.4 mph 23.0 mph N/A   Scattered Clouds
5:15 PM 91.8 °F - 38.3 °F 15% 29.89 in 10.0 mi NW 12.7 mph 17.3 mph N/A   Clear
5:35 PM 91.2 °F - 37.2 °F 15% 29.90 in 7.0 mi NW 13.8 mph 20.7 mph N/A   Clear
5:55 PM 90.7 °F - 36.5 °F 15% 29.90 in 7.0 mi NNW 16.1 mph 21.9 mph N/A   Clear
6:15 PM 90.0 °F - 37.0 °F 15% 29.90 in 7.0 mi NNW 9.2 mph - N/A   Clear
6:35 PM 89.1 °F - 37.8 °F 16% 29.90 in 7.0 mi NNW 9.2 mph - N/A   Clear
6:55 PM 88.0 °F - 39.7 °F 18% 29.91 in 7.0 mi North 10.4 mph - N/A   Clear
7:15 PM 86.4 °F - 41.0 °F 20% 29.91 in 10.0 mi North 10.4 mph - N/A   Clear
7:35 PM 84.7 °F - 41.7 °F 22% 29.92 in 7.0 mi North 8.1 mph - N/A   Clear
7:55 PM 82.8 °F - 42.8 °F 24% 29.93 in 10.0 mi NNE 5.8 mph - N/A   Clear
8:15 PM 82.4 °F - 42.8 °F 25% 29.94 in 10.0 mi NNE 4.6 mph - N/A   Clear
8:35 PM 81.0 °F - 43.3 °F 26% 29.95 in 7.0 mi NE 5.8 mph - N/A   Clear
8:55 PM 79.2 °F - 43.7 °F 28% 29.95 in 10.0 mi NE 4.6 mph - N/A   Clear
9:15 PM 78.3 °F - 44.2 °F 30% 29.96 in 10.0 mi ENE 4.6 mph - N/A   Clear
9:35 PM 77.0 °F - 44.4 °F 31% 29.97 in 7.0 mi ENE 3.5 mph - N/A   Clear
9:55 PM 75.0 °F - 44.6 °F 34% 29.97 in 10.0 mi East 4.6 mph - N/A   Clear
10:15 PM 74.3 °F - 44.8 °F 35% 29.98 in 7.0 mi East 5.8 mph - N/A   Clear
10:35 PM 72.9 °F - 49.5 °F 44% 29.98 in 7.0 mi East 5.8 mph - N/A   Clear
10:55 PM 70.7 °F - 53.6 °F 55% 29.99 in 10.0 mi SE 3.5 mph - N/A   Clear
11:15 PM 71.1 °F - 54.1 °F 55% 29.99 in 10.0 mi SE 4.6 mph - N/A   Clear
11:35 PM 69.8 °F - 55.0 °F 59% 29.99 in 10.0 mi East 3.5 mph - N/A   Clear
11:55 PM 70.9 °F - 57.2 °F 62% 29.99 in 7.0 mi SE 3.5 mph - N/A   Clear